Winston-Salem, NC

11:24 PM EDT on July 20, 2017 (GMT -0400)
Smith Reynolds

Weather History for KINT - October, 2012

Change the Weather History Date:

Wednesday, October 10, 2012

  Actual Average Record
Temperature  
Mean Temperature 59 °F -  
Max Temperature 70 °F 70 °F 89 °F (1997)
Min Temperature 48 °F 50 °F 30 °F (1987)
Degree Days  
Heating Degree Days 6    
Growing Degree Days 9 (Base 50)    
Moisture  
Dew Point 48 °F    
Average Humidity 71    
Maximum Humidity 93    
Minimum Humidity 47    
Precipitation  
Precipitation 0.01 in - - ()
Sea Level Pressure  
Sea Level Pressure 30.07 in    
Wind  
Wind Speed 3 mph (West)    
Max Wind Speed 12 mph    
Max Gust Speed 17 mph    
Visibility 10 miles    
Events      
Averages and records for this station are not official NWS values.
T = Trace of Precipitation, MM = Missing Value Source: NWS Daily Summary

Daily Weather History Graph

Daily Weather History Graph

Search for Another Location

Airport or City:

Trip Planner

Search our weather history database for the weather conditions in past years. The results will help you decide how hot, cold, wet, or windy it might be!

Date:

Astronomy

Oct. 10, 2012 Rise Set
Actual Time 7:23 AM EDT 6:51 PM EDT
Civil Twilight 6:58 AM EDT 7:16 PM EDT
Nautical Twilight 6:28 AM EDT 7:46 PM EDT
Astronomical Twilight 5:58 AM EDT 8:16 PM EDT
Moon 2:07 AM EDT (10/10) 3:44 PM EDT (10/10)
Length of Visible Light 12h 18m
Length of Day
11h 27m
Waning Crescent, 27% of the Moon is Illuminated
Oct 10
Waning Crescent
Oct 15
New
Oct 21
First Quarter
Oct 29
Full
Nov 6
Last Quarter

Hourly Weather History & Observations

Time (EDT) Temp. Dew Point Humidity Pressure Visibility Wind Dir Wind Speed Gust Speed Precip Events Conditions
12:54 AM 53.1 °F 50.0 °F 89% 30.09 in 10.0 mi West 3.5 mph - N/A   Overcast
1:54 AM 53.1 °F 48.9 °F 86% 30.09 in 10.0 mi Calm Calm - N/A   Overcast
2:14 AM 53.6 °F 48.2 °F 82% 30.09 in 10.0 mi Calm Calm - N/A   Overcast
2:54 AM 52.0 °F 48.9 °F 89% 30.07 in 10.0 mi Calm Calm - N/A   Overcast
3:54 AM 52.0 °F 48.9 °F 89% 30.06 in 10.0 mi Calm Calm - N/A   Overcast
4:54 AM 53.1 °F 48.0 °F 83% 30.05 in 10.0 mi SSW 3.5 mph - N/A   Overcast
5:24 AM 51.8 °F 48.2 °F 88% 30.05 in 10.0 mi Calm Calm - N/A   Scattered Clouds
5:54 AM 51.1 °F 48.0 °F 89% 30.05 in 10.0 mi Calm Calm - N/A   Scattered Clouds
6:54 AM 50.0 °F 46.9 °F 89% 30.07 in 10.0 mi WSW 4.6 mph - 0.01 in   Scattered Clouds
7:54 AM 48.9 °F 46.9 °F 93% 30.09 in 10.0 mi West 4.6 mph - N/A   Clear
8:54 AM 52.0 °F 48.0 °F 86% 30.09 in 10.0 mi West 3.5 mph - N/A   Clear
9:54 AM 55.0 °F 46.9 °F 74% 30.09 in 10.0 mi SW 4.6 mph - N/A   Clear
10:54 AM 57.9 °F 46.9 °F 67% 30.08 in 10.0 mi West 4.6 mph - N/A   Clear
11:54 AM 62.1 °F 48.0 °F 60% 30.06 in 10.0 mi SW 4.6 mph - N/A   Clear
12:54 PM 64.0 °F 48.0 °F 56% 30.04 in 10.0 mi West 6.9 mph - N/A   Clear
1:54 PM 66.9 °F 48.9 °F 52% 30.02 in 10.0 mi West 8.1 mph 16.1 mph N/A   Scattered Clouds
2:54 PM 68.0 °F 48.9 °F 50% 30.01 in 10.0 mi West 9.2 mph - N/A   Mostly Cloudy
3:54 PM 70.0 °F 48.9 °F 47% 30.00 in 10.0 mi West 11.5 mph 17.3 mph N/A   Scattered Clouds
4:54 PM 68.0 °F 46.9 °F 47% 30.01 in 10.0 mi WNW 8.1 mph 16.1 mph N/A   Scattered Clouds
5:54 PM 66.9 °F 46.0 °F 47% 30.02 in 10.0 mi West 8.1 mph 16.1 mph N/A   Partly Cloudy
6:54 PM 64.0 °F 46.0 °F 52% 30.04 in 10.0 mi WNW 6.9 mph - N/A   Mostly Cloudy
7:54 PM 62.1 °F 48.0 °F 60% 30.06 in 10.0 mi West 5.8 mph - N/A   Mostly Cloudy
8:54 PM 60.1 °F 48.0 °F 64% 30.09 in 10.0 mi West 4.6 mph - N/A   Clear
9:54 PM 57.0 °F 46.9 °F 69% 30.11 in 10.0 mi NW 3.5 mph - N/A   Clear
10:54 PM 55.9 °F 48.0 °F 75% 30.14 in 10.0 mi NW 4.6 mph - N/A   Clear
11:54 PM 55.0 °F 44.1 °F 67% 30.15 in 10.0 mi NW 4.6 mph - N/A   Clear